Flag for Kazakhstan Weather past 2 weeks in Shymkent, Kazakhstan

Now
79 °F

Sunny.


Feels Like: 79 °F
Forecast: 54 / 84 °F
Wind: 3 mph from North

Location: Shymkent Airport

Current Time: May 25, 2015 at 3:44:26 PM

Latest Report: May 25, 2015 at 3:00 PM


Visibility: 10 mi

Pressure: 30.09 "Hg

Humidity: 32%

Dew point: 46 °F

Location of ShymkentLocation

Historic Weather in Shymkent — Graph

°F

Shymkent temperature yesterday

Maximum temperature yesterday: 75 °F (at 12:00 PM)
Minimum temperature yesterday: 54 °F (at 11:30 PM)
Average temperature yesterday: 64 °F

Past Weeks' High & Low Weather Summary

 TemperatureHumidityPressure
High93 °F (May 15, 1:30 PM)100% (May 12, 4:30 AM)30.15 "Hg (May 12, 4:30 AM)
Low48 °F (May 22, 4:00 AM)17% (May 22, 7:00 PM)29.62 "Hg (May 16, 3:00 AM)
Average69 °F55%29.96 "Hg
* Reported May 10 2:00 PM — May 25 2:30 PM, Shymkent, Weather by CustomWeather, © 2015

Note: Actual official high and low records may vary slightly from our data, if they occured in-between our weather recording intervals... More about our weather records

Advertising

Shymkent weather history for previous 24 hours

 ConditionsComfort  
Time TempWeatherWind HumidityBarometerVisibility
2:30 PM
Mon, May 25
77 °FSunny.6 mph34%30.09 "Hg10 mi
2:00 PM77 °FSunny.3 mph34%30.09 "Hg10 mi
1:30 PM75 °FSunny.3 mph39%30.09 "Hg10 mi
1:00 PM73 °FSunny.3 mph44%30.09 "Hg10 mi
12:30 PM73 °FSunny.3 mph41%30.09 "Hg10 mi
12:00 PM72 °FPassing clouds.3 mph44%30.09 "HgN/A
11:30 AM70 °FSunny.3 mph43%30.12 "Hg10 mi
11:00 AM68 °FPassing clouds.6 mph49%30.12 "HgN/A
10:30 AM66 °FPassing clouds.6 mph52%30.12 "HgN/A
9:30 AM64 °FPassing clouds.3 mph52%30.09 "HgN/A
9:00 AM64 °FPassing clouds.3 mph56%30.09 "HgN/A
8:30 AM61 °FSunny.No wind55%30.09 "Hg10 mi
8:00 AM59 °FPassing clouds.3 mph63%30.09 "HgN/A
7:30 AM59 °FPassing clouds.3 mph68%30.09 "HgN/A
7:00 AM54 °FSunny.1 mph77%30.09 "Hg10 mi
6:30 AM50 °FSunny.3 mph82%30.09 "Hg10 mi
6:00 AM50 °FSunny.1 mph82%30.09 "Hg10 mi
5:30 AM50 °FClear.No wind82%30.09 "Hg10 mi
5:00 AM50 °FClear.No wind82%30.09 "Hg10 mi
4:30 AM52 °FClear.1 mph77%30.09 "Hg10 mi
4:00 AM52 °FClear.1 mph77%30.09 "Hg10 mi
3:30 AM50 °FClear.3 mph82%30.09 "Hg10 mi
3:00 AM54 °FClear.1 mph72%30.09 "Hg10 mi
2:30 AM50 °FClear.1 mph82%30.09 "Hg10 mi
2:00 AM54 °FPassing clouds.3 mph72%30.09 "HgN/A
1:30 AM52 °FClear.3 mph77%30.09 "Hg10 mi
1:00 AM52 °FClear.1 mph77%30.09 "Hg10 mi
12:30 AM54 °FClear.1 mph72%30.09 "Hg10 mi
12:00 AM54 °FClear.3 mph72%30.09 "Hg10 mi
11:30 PM
Sun, May 24
54 °FClear.1 mph72%30.09 "Hg10 mi
11:00 PM57 °FClear.No wind63%30.09 "Hg10 mi
10:30 PM59 °FClear.1 mph63%30.09 "Hg10 mi
10:00 PM59 °FClear.3 mph68%30.09 "Hg10 mi
9:30 PM61 °FClear.No wind63%30.09 "Hg10 mi
9:00 PM63 °FClear.No wind59%30.07 "Hg10 mi
8:30 PM64 °FSunny.No wind56%30.07 "Hg10 mi
8:00 PM66 °FMore clouds than sun.1 mph49%30.04 "HgN/A
7:30 PM68 °FMore clouds than sun.3 mph46%30.04 "HgN/A
7:00 PM68 °FMore clouds than sun.3 mph46%30.04 "HgN/A
6:30 PM70 °FMore clouds than sun.6 mph33%30.04 "HgN/A
6:00 PM70 °FMore clouds than sun.8 mph33%30.04 "HgN/A
5:30 PM70 °FMore clouds than sun.8 mph35%30.04 "HgN/A
5:00 PM66 °FBroken clouds.6 mph46%30.04 "HgN/A
4:30 PM66 °FThundershowers. Broken clouds.17 mph46%30.04 "HgN/A
4:00 PM64 °FThundershowers. Broken clouds.17 mph46%30.07 "HgN/A
3:30 PM64 °FBroken clouds.22 mph46%30.04 "HgN/A
3:00 PM66 °FThundershowers. Broken clouds.15 mph43%30.04 "HgN/A
Weather by CustomWeather, © 2015

See weather overviewHow to use our weather pages